Хандальск

Россия / Красноярский край     57°05′31″N   97°07′23″E
темп.,
°C
ветер,
м/с
пор.,
м/с
влажн.,
%
обл.,
%
осадки,
мм/ч
давл.,
гПа
погр.,
м
9 мая, вс
вс901:00+5зюз1184100 0.0 101019
04:00+5юз1394100 0.5 1010302
07:00+4зсз2396100 1.8 1011777
10:00+3зсз2696100 3.1 1012629
13:00+4зсз2596100 4.1 1013636
16:00+4зсз2496100 1.1 1014595
19:00+4з1397100 2.2 1015202
22:00+4зсз1398100 0.6 101695
10 мая, пн
пн1001:00+4ссз229478 1.2 101729
04:00+4сз2595100 0.0 1018144
07:00+6ссз368967 0.1 1019277
10:00+10ссв35645 0.0 10191191
13:00+13ссв354683 0.5 10192108
16:00+14ссв454496 0.0 10201766
19:00+12ссв36545 0.0 1020232
22:00+7с11725 0.0 102110
11 мая, вт
вт1101:00+5ссв11775 0.0 102110
04:00+4св118517 0.0 102110
07:00+8всв127017 0.0 1020192
10:00+13в22517 0.0 10191061
13:00+16вюв223881 0.0 10172268
16:00+14всв4447100 0.0 10161230
19:00+12всв375699 0.0 1016424
22:00+8всв41168100 0.0 1017511
12 мая, ср
ср1201:00+6св41169100 0.0 1018554
04:00+5св4986100 0.8 1018538
07:00+5всв378091 2.1 1019628
10:00+9всв465371 0.0 10181566
13:00+12св453594 0.0 10172309
16:00+12ссв452993 0.0 10172601
19:00+10ссв36375 0.0 1018355
22:00+5св22585 0.0 102022
13 мая, чт
чт1301:00+3св11615 0.0 102110
04:00+1св11650 0.0 102110
07:00+6св00510 0.0 1022159
10:00+12зюз11325 0.0 10201723
13:00+14з22285 0.0 10182042
16:00+14зюз23285 0.0 10162152
19:00+12зюз25393 0.0 1015197
22:00+7ююз24565 0.0 101464